Location: Procida
(40.7667°N, 14.0333°E)
Time: 05:02:36
(UTC+00:00)

Daily predictions for brighter satellites

Satellite Brightness Start Highest point End
(mag) Time Altitude Azimuth Time Altitude Azimuth Time Altitude Azimuth
CENTAUR R/B 4.2 02:28:55 27° ENE 02:28:55 27° ENE 02:32:19 10° NE
Cosmos 2344 3.9 02:53:31 56° NNE 02:53:31 56° NNE 02:59:17 10° NE
USA 238 DEB 3.7 03:12:40 71° E 03:12:40 71° E 03:18:58 10° NE
USA 238 3.7 03:12:43 71° E 03:12:43 71° E 03:19:04 10° NE
BREEZE-M DEB (TANK) 3.9 03:15:56 47° ENE 03:15:56 47° ENE 03:24:27 10° ESE
Cosmos 1816 Rocket 4.5 03:17:03 10° S 03:23:14 79° E 03:29:31 10° N
USA 215 4.2 03:18:11 10° E 03:24:02 37° NNE 03:25:43 32° N
Cosmos 2034 Rocket 3.9 03:24:11 81° ENE 03:24:20 82° E 03:30:38 10° S
Cosmos 2369 Rocket 3.1 03:31:05 10° S 03:36:23 46° ESE 03:41:43 10° NE
Cosmos 1782 4.0 03:40:16 40° E 03:40:16 40° E 03:43:35 10° SSE
COSMO-SKYMED 1 4.0 03:41:52 10° SE 03:45:49 35° ENE 03:48:36 17° NNE
MOS 1-B Rocket 4.2 03:42:26 10° SSE 03:48:52 68° ENE 03:54:14 12° N
Cosmos 1867 3.4 03:50:14 75° NW 03:50:44 87° WSW 03:56:11 10° SSE
Tsikada Rocket 3.8 03:44:36 10° S 03:50:47 82° W 03:57:05 10° N
Cosmos 2208 Rocket 4.0 03:52:17 57° NNW 03:53:28 89° ENE 03:58:50 10° SSE
H-2A R/B 3.4 03:51:06 10° NNE 03:54:44 53° E 03:58:24 10° S
Cosmos 1656 Rocket 4.3 03:55:15 10° S 04:00:28 52° ESE 04:05:44 10° NNE
Cosmos 1943 Rocket 2.6 04:06:38 41° NW 04:06:38 41° NW 04:11:11 10° NNE
CZ-2C R/B 3.0 04:01:24 10° SSE 04:06:51 66° ENE 04:12:13 10° N
SL-19 R/B 4.1 04:03:28 10° SSE 04:09:06 84° WSW 04:13:21 18° NNW
Cosmos 1486 Rocket 4.1 04:04:27 10° SSW 04:09:45 78° ESE 04:15:03 10° NNE
Cosmos 2082 Rocket 4.2 04:15:38 13° SW 04:15:38 13° SW 04:16:18 10° SSW
Cosmos 1241 Rocket 4.3 04:10:32 36° NW 04:13:14 74° WSW 04:19:23 10° SSE
CENTAUR R/B 3.0 04:16:08 37° WNW 04:16:52 38° NW 04:23:21 10° NNE
Cosmos 2297 4.3 04:21:06 34° NW 04:21:06 34° NW 04:26:00 10° N
Iridium 2 3.5 04:21:27 10° S 04:25:14 79° W 04:29:02 10° N
SJ 16-02 4.1 04:24:01 10° SE 04:27:14 20° E 04:30:28 10° NE
NOSS 3-2 (A) 4.4 04:27:50 26° NW 04:28:11 26° NW 04:33:31 10° NNE
SKYMED 2 3.5 04:29:28 10° S 04:33:46 68° WSW 04:37:12 16° NNW
NOSS 3-2 (C) 3.9 04:33:35 30° WNW 04:35:21 36° NW 04:41:14 10° NNE
DELTA 2 R/B (1) 3.9 04:33:01 20° WSW 04:36:51 61° SSE 04:42:19 10° E
Envisat 3.0 04:31:59 10° N 04:36:57 55° WNW 04:41:53 10° SSW
Meteor 2-6 Rocket 4.1 04:32:44 10° N 04:38:11 83° E 04:43:34 10° S
Cosmos 2098 Rocket 2.9 04:36:40 10° SSW 04:40:16 54° WNW 04:44:50 10° N
Meteor 2-3 Rocket 4.4 04:36:08 10° SW 04:41:04 31° WNW 04:46:05 10° N
Landsat 5 3.6 04:38:53 10° S 04:43:22 71° WSW 04:47:52 10° NNW
ATLAS 3B R/B 4.3 04:38:23 10° S 04:44:07 35° ESE 04:50:05 10° NE
Cosmos 968 Rocket 4.1 04:42:38 23° WSW 04:44:45 31° WNW 04:49:18 10° N
BREEZE-M DEB (TANK) 4.3 04:31:15 18° WNW 04:45:27 66° SW 04:50:43 10° SE
CZ-4B R/B 4.3 04:45:10 10° N 04:49:25 46° WNW 04:53:41 10° SW
Genesis I 3.9 04:49:23 27° WNW 04:50:57 38° WSW 04:54:42 10° S
Okean 3 Rocket 3.6 04:47:24 10° SSW 04:51:52 60° W 04:56:22 10° N
Cosmos 921 Rocket 3.5 04:50:35 21° NW 04:53:04 39° W 04:57:13 10° S
H-2A R/B 3.2 04:50:04 10° SE 04:54:04 43° ENE 04:58:11 10° N
ATLAS 5 CENTAUR R/B 3.1 04:50:44 10° S 04:54:07 33° ESE 04:57:46 10° NE
Meteor 1-10 Rocket 4.2 04:48:36 10° N 04:54:11 83° E 04:59:43 10° S
DNEPR-1 R/B 4.1 04:53:14 13° NNW 04:57:37 84° NE 05:03:32 10° SSE
Cosmos 1833 4.3 04:52:04 10° NNW 04:57:47 82° ENE 05:03:31 10° SSE
Cosmos 1812 3.4 04:56:57 18° NW 04:59:14 33° W 05:02:40 10° SSW
ADEOS 3.5 04:55:18 10° N 05:00:30 68° WNW 05:05:40 10° SSW
SJ-7 4.4 04:57:39 10° N 05:01:51 73° WNW 05:05:58 10° SSW
Cosmos 1354 Rocket 3.9 04:56:56 10° SSW 05:02:11 75° WNW 05:07:31 10° NNE
Cosmos 1766 Rocket 4.0 05:01:09 10° SW 05:05:08 36° WNW 05:09:10 10° N
Cosmos 1151 Rocket 3.6 05:02:06 10° NNW 05:06:07 36° W 05:10:07 10° SSW
Cosmos 2263 4.5 05:01:06 10° SW 05:06:32 45° WNW 05:12:02 10° NNE
USA 215 3.3 05:00:08 10° SE 05:06:40 80° SW 05:13:03 11° NW
CZ-2C R/B 2.9 05:03:38 10° NNE 05:08:31 84° WNW 05:13:37 10° SSW
Meteor PRIRODA 3.6 05:10:12 10° N 05:13:46 60° WNW 05:17:20 10° SSW
Meteor 1-31 Rocket 3.9 05:12:09 10° NNW 05:15:10 22° WNW 05:18:12 10° WSW
IRAS Rocket 4.2 05:09:55 10° S 05:15:25 70° WSW 05:20:55 10° NNW
Cosmos 2279 Rocket 4.3 05:11:00 10° NNW 05:16:49 44° W 05:22:37 10° SSW
BREEZE-M DEB (TANK) 3.4 05:04:51 10° WSW 05:18:12 77° NNW 05:21:47 10° NE
Cosmos 1328 Rocket 4.1 05:14:46 10° NNW 05:18:49 37° W 05:22:49 10° SSW
Cosmos 2369 Rocket 3.1 05:16:00 10° WSW 05:20:37 26° NW 05:25:15 10° N
Cosmos 1862 4.4 05:18:25 10° SW 05:21:33 22° WNW 05:24:42 10° NNW
COSMO-SKYMED 1 3.9 05:18:52 10° SW 05:22:03 20° W 05:25:16 10° NW
FengYun 1-2 T 4.3 05:18:20 10° NNE 05:23:51 86° ESE 05:29:20 10° SSW
SMAP 3.3 05:19:37 10° NNE 05:24:17 78° ESE 05:28:56 10° S
Nadezhda 4 Rocket 3.9 05:18:13 10° SSW 05:24:19 72° W 05:30:34 10° N
CZ-2D R/B 4.1 05:29:59 10° NNE 05:33:44 56° E 05:37:26 10° S
H-2A R/B 3.1 05:30:50 10° NNE 05:35:36 48° E 05:40:21 10° S
Meteor 2-15 Rocket 4.5 05:30:40 10° NNW 05:36:39 62° W 05:42:35 10° S
Cosmos 2228 Rocket 3.7 05:32:37 10° N 05:37:04 61° E 05:41:33 10° SSE
CZ-4B R/B 1.7 05:34:36 10° SSE 05:37:54 68° ENE 05:41:11 10° N
CZ-4B R/B 3.2 05:34:49 10° N 05:38:03 33° WNW 05:41:17 10° SW
Cosmos 1092 Rocket 4.1 05:32:19 10° S 05:38:33 86° E 05:44:54 10° N
Cosmos 1408 Rocket 4.2 05:36:42 10° SW 05:40:33 32° WNW 05:44:26 10° NNW
Meteor 1-20 Rocket 4.3 05:38:34 10° S 05:44:07 88° WNW 05:49:48 10° N
